Tanana, AK

2:51 AM AKDT on June 24, 2017 (GMT -0800)
Calhoun Memorial

Weather History for PATA - June, 2013

Change the Weather History Date:

Sunday, June 30, 2013

  Actual Average Record
Temperature  
Mean Temperature 65 °F -  
Max Temperature 75 °F 69 °F 88 °F (1991)
Min Temperature 54 °F 47 °F -35 °F (1971)
Growing Degree Days 15 (Base 50)    
Moisture  
Dew Point 55 °F    
Average Humidity 63    
Maximum Humidity 93    
Minimum Humidity 51    
Precipitation  
Precipitation 0.09 in - - ()
Sea Level Pressure  
Sea Level Pressure 29.73 in    
Wind  
Wind Speed 5 mph (ESE)    
Max Wind Speed 14 mph    
Max Gust Speed 21 mph    
Visibility 6 miles    
Events Rain    
Averages and records for this station are not official NWS values.
T = Trace of Precipitation, MM = Missing Value Source: NWS Daily Summary

Daily Weather History Graph

Daily Weather History Graph

Search for Another Location

Airport or City:

Trip Planner

Search our weather history database for the weather conditions in past years. The results will help you decide how hot, cold, wet, or windy it might be!

Date:

Astronomy

Jun. 30, 2013 Rise Set
Actual Time 3:16 AM AKDT 1:06 AM AKDT
Civil Twilight Sun does not set Sun does not set
Nautical Twilight Sun does not set Sun does not set
Astronomical Twilight Sun does not set Sun does not set
Moon 1:08 AM AKDT (6/30) 4:01 PM AKDT (6/30)
Length of Visible Light 24h 00m
Length of Day
21h 50m
Last Quarter, 44% of the Moon is Illuminated
Jun 30
Last Quarter
Jul 7
New
Jul 15
First Quarter
Jul 22
Full
Jul 29
Last Quarter

Hourly Weather History & Observations

Time (AKDT) Temp. Dew Point Humidity Pressure Visibility Wind Dir Wind Speed Gust Speed Precip Events Conditions
12:52 AM 64.9 °F 53.1 °F 65% 29.85 in 9.0 mi NNE 4.6 mph - N/A   Overcast
1:52 AM 64.9 °F 53.1 °F 65% 29.85 in 9.0 mi NNE 3.5 mph - N/A   Mostly Cloudy
2:52 AM 64.0 °F 53.1 °F 67% 29.84 in 9.0 mi ENE 3.5 mph - N/A   Partly Cloudy
3:52 AM 63.0 °F 53.1 °F 70% 29.84 in 8.0 mi Calm Calm - N/A   Partly Cloudy
4:52 AM 63.0 °F 54.0 °F 72% 29.83 in 7.0 mi Calm Calm - N/A   Mostly Cloudy
5:52 AM 64.9 °F 54.0 °F 68% 29.82 in 8.0 mi Calm Calm - N/A   Overcast
6:52 AM 68.0 °F 53.1 °F 59% 29.81 in 10.0 mi East 3.5 mph - N/A   Scattered Clouds
7:52 AM 69.1 °F 53.1 °F 57% 29.80 in 10.0 mi East 5.8 mph - N/A   Overcast
8:52 AM 70.0 °F 54.0 °F 57% 29.79 in 7.0 mi East 5.8 mph - N/A   Clear
9:52 AM 72.0 °F 53.1 °F 51% 29.78 in 7.0 mi East 5.8 mph - N/A   Partly Cloudy
10:52 AM 73.9 °F 55.0 °F 52% 29.76 in 7.0 mi ESE 5.8 mph - N/A   Mostly Cloudy
11:52 AM 73.9 °F 55.9 °F 53% 29.74 in 7.0 mi ESE 5.8 mph - N/A   Mostly Cloudy
12:52 PM 75.0 °F 57.0 °F 53% 29.72 in 7.0 mi ESE 6.9 mph - N/A   Mostly Cloudy
1:00 PM 75.2 °F 57.2 °F 53% 29.72 in 3.0 mi ESE 6.9 mph - N/A   Smoke
1:25 PM 75.2 °F 57.2 °F 53% 29.71 in 2.5 mi ESE 9.2 mph - N/A   Smoke
1:52 PM 75.0 °F 57.9 °F 55% 29.70 in 2.0 mi ESE 8.1 mph - N/A   Smoke
2:17 PM 75.2 °F 57.2 °F 53% 29.69 in 1.0 mi ESE 6.9 mph - N/A   Smoke
2:52 PM 75.0 °F 57.9 °F 55% 29.68 in 1.0 mi SE 8.1 mph - N/A   Smoke
3:52 PM 73.9 °F 57.9 °F 57% 29.67 in 1.0 mi ESE 5.8 mph - N/A   Smoke
4:52 PM 75.9 °F 57.9 °F 54% 29.65 in 1.0 mi SE 3.5 mph - N/A   Smoke
5:35 PM 75.2 °F 57.2 °F 53% 29.64 in 1.5 mi Calm Calm - N/A   Smoke
5:52 PM 73.0 °F 57.0 °F 57% 29.64 in 1.8 mi WSW 3.5 mph - N/A   Smoke
6:01 PM 69.8 °F 57.2 °F 64% 29.64 in 3.0 mi WSW 8.1 mph 19.6 mph N/A   Smoke
6:52 PM 66.9 °F 55.9 °F 68% 29.65 in 10.0 mi WNW 13.8 mph - N/A   Overcast
7:52 PM 62.1 °F 51.1 °F 67% 29.64 in 10.0 mi West 11.5 mph 20.7 mph 0.00 in Rain Light Rain
8:52 PM 57.9 °F 53.1 °F 84% 29.64 in 10.0 mi West 9.2 mph 18.4 mph 0.01 in Rain Light Rain
9:52 PM 57.0 °F 52.0 °F 83% 29.64 in 10.0 mi West 11.5 mph 20.7 mph 0.00 in Rain Light Rain
10:52 PM 55.0 °F 53.1 °F 93% 29.67 in 6.0 mi WNW 5.8 mph - 0.05 in Rain Light Rain
11:52 PM 54.0 °F 52.0 °F 93% 29.67 in 6.0 mi West 5.8 mph - 0.03 in Rain Light Rain